| time (UTC) | temp F | wind direction | speed MPH | gust MPH | rain 1hr in | rain 24hr in | rain mn in | humidity % | barometer mb |
| 20260901231740 | 72 | 16 | 0.0 | 1.0 | 0.00 | 1.13 | 1.13 | 99 | 1017.3 |
| 20260901231236 | 73 | 20 | 0.0 | 0.0 | 0.00 | 1.13 | 1.13 | 99 | 1016.8 |
| 20260901230732 | 73 | 17 | 0.0 | 0.0 | 0.00 | 1.13 | 1.13 | 99 | 1016.8 |
| 20260901230231 | 73 | 17 | 0.0 | 0.0 | 0.00 | 1.13 | 1.13 | 99 | 1016.9 |
| 20260901225726 | 73 | 17 | 0.0 | 0.0 | 0.00 | 1.13 | 1.13 | 99 | 1017.4 |
| 20260901225221 | 74 | 16 | 0.0 | 0.0 | 0.00 | 1.13 | 1.13 | 99 | 1017.6 |
| 20260901224717 | 74 | 17 | 0.0 | 0.0 | 0.00 | 1.13 | 1.13 | 99 | 1017.5 |
| 20260901224213 | 75 | 37 | 0.0 | 1.0 | 0.00 | 1.13 | 1.13 | 99 | 1017.6 |
| 20260901223709 | 75 | 26 | 0.0 | 0.0 | 0.00 | 1.13 | 1.13 | 98 | 1016.9 |
| 20260901223203 | 75 | 19 | 0.0 | 0.0 | 0.00 | 1.13 | 1.13 | 97 | 1017.1 |
| 20260901222659 | 75 | 56 | 1.0 | 1.0 | 0.00 | 1.13 | 1.13 | 98 | 1016.9 |
| 20260901222155 | 75 | 34 | 0.0 | 0.0 | 0.00 | 1.13 | 1.13 | 98 | 1016.8 |
| 20260901221651 | 76 | 19 | 0.0 | 0.0 | 0.00 | 1.13 | 1.13 | 97 | 1017.0 |
| 20260901221147 | 76 | 16 | 0.0 | 0.0 | 0.00 | 1.13 | 1.13 | 94 | 1016.9 |
| 20260901220646 | 77 | 7 | 1.0 | 1.0 | 0.00 | 1.13 | 1.13 | 92 | 1016.7 |
| 20260901220145 | 77 | 47 | 0.0 | 0.0 | 0.00 | 1.13 | 1.13 | 90 | 1016.7 |
| 20260901215644 | 78 | 42 | 1.0 | 2.0 | 0.00 | 1.13 | 1.13 | 90 | 1016.9 |
| 20260901215139 | 78 | 8 | 1.0 | 2.0 | 0.00 | 1.13 | 1.13 | 90 | 1016.6 |
| 20260901214637 | 78 | 16 | 0.0 | 0.0 | 0.00 | 1.13 | 1.13 | 89 | 1016.7 |
| 20260901214136 | 78 | 9 | 0.0 | 0.0 | 0.00 | 1.13 | 1.13 | 89 | 1016.9 |
| 20260901213631 | 78 | 28 | 2.0 | 3.0 | 0.00 | 1.13 | 1.13 | 92 | 1016.7 |
| 20260901213126 | 78 | 189 | 1.0 | 2.0 | 0.00 | 1.13 | 1.13 | 91 | 1016.8 |
| 20260901212626 | 78 | 3 | 0.0 | 0.0 | 0.00 | 1.13 | 1.13 | 91 | 1016.5 |
| 20260901212122 | 78 | 18 | 0.0 | 1.0 | 0.00 | 1.13 | 1.13 | 90 | 1016.6 |
| 20260901211616 | 78 | 341 | 1.0 | 1.0 | 0.00 | 1.13 | 1.13 | 92 | 1016.8 |
| 20260901211113 | 78 | 36 | 0.0 | 1.0 | 0.00 | 1.13 | 1.13 | 90 | 1016.5 |
| 20260901210608 | 78 | 358 | 1.0 | 1.0 | 0.00 | 1.13 | 1.13 | 91 | 1016.4 |
| 20260901210104 | 78 | 19 | 1.0 | 1.0 | 0.00 | 1.13 | 1.13 | 92 | 1016.2 |
| 20260901205559 | 78 | 12 | 0.0 | 0.0 | 0.00 | 1.13 | 1.13 | 93 | 1016.5 |
| 20260901205054 | 77 | 41 | 0.0 | 0.0 | 0.00 | 1.13 | 1.13 | 92 | 1016.5 |
| 20260901204550 | 78 | 31 | 0.0 | 1.0 | 0.00 | 1.13 | 1.13 | 93 | 1016.6 |
| 20260901204045 | 77 | 15 | 1.0 | 2.0 | 0.00 | 1.13 | 1.13 | 92 | 1016.7 |
| 20260901203539 | 78 | 2 | 2.0 | 2.0 | 0.00 | 1.13 | 1.13 | 92 | 1016.7 |
| 20260901203034 | 78 | 58 | 2.0 | 3.0 | 0.00 | 1.13 | 1.13 | 91 | 1016.7 |
| 20260901202529 | 78 | 101 | 1.0 | 1.0 | 0.00 | 1.13 | 1.13 | 93 | 1016.9 |
| 20260901202025 | 77 | 4 | 1.0 | 1.0 | 0.00 | 1.13 | 1.13 | 94 | 1016.7 |
| 20260901201520 | 77 | 306 | 2.0 | 2.0 | 0.00 | 1.13 | 1.13 | 93 | 1016.9 |
| 20260901201014 | 78 | 238 | 2.0 | 2.0 | 0.00 | 1.13 | 1.13 | 93 | 1016.8 |
| 20260901200508 | 78 | 336 | 1.0 | 1.0 | 0.00 | 1.13 | 1.13 | 93 | 1016.6 |
| 20260901200008 | 77 | 4 | 0.0 | 0.0 | 0.00 | 1.13 | 1.13 | 96 | 1016.7 |
| 20260901195506 | 76 | 14 | 1.0 | 1.0 | 0.00 | 1.13 | 1.13 | 96 | 1016.6 |
| 20260901195006 | 76 | 308 | 2.0 | 2.0 | 0.00 | 1.13 | 1.13 | 97 | 1016.8 |
| 20260901194501 | 76 | 19 | 0.0 | 0.0 | 0.00 | 1.13 | 1.13 | 98 | 1016.7 |
| 20260901193956 | 76 | 42 | 0.0 | 1.0 | 0.00 | 1.13 | 1.13 | 99 | 1016.8 |
| 20260901193456 | 75 | 330 | 1.0 | 1.0 | 0.00 | 1.13 | 1.13 | 99 | 1016.9 |
| 20260901192956 | 75 | 346 | 0.0 | 1.0 | 0.00 | 1.13 | 1.13 | 99 | 1017.1 |
| 20260901192452 | 75 | 277 | 1.0 | 1.0 | 0.00 | 1.13 | 1.13 | 99 | 1016.9 |
| 20260901191948 | 74 | 9 | 0.0 | 0.0 | 0.00 | 1.13 | 1.13 | 99 | 1017.1 |
| 20260901191443 | 74 | 7 | 0.0 | 1.0 | 0.00 | 1.13 | 1.13 | 99 | 1016.8 |
| 20260901190939 | 74 | 354 | 0.0 | 0.0 | 0.00 | 1.13 | 1.13 | 99 | 1016.7 |
| 20260901190434 | 74 | 3 | 1.0 | 1.0 | 0.00 | 1.13 | 1.13 | 99 | 1016.7 |
| 20260901185932 | 74 | 33 | 0.0 | 0.0 | 0.00 | 1.13 | 1.13 | 99 | 1016.7 |
| 20260901185432 | 73 | 19 | 0.0 | 0.0 | 0.00 | 1.13 | 1.13 | 99 | 1016.7 |
| 20260901184926 | 73 | 20 | 0.0 | 0.0 | 0.00 | 1.13 | 1.13 | 99 | 1017.0 |
| 20260901184422 | 73 | 353 | 1.0 | 1.0 | 0.00 | 1.13 | 1.13 | 99 | 1016.7 |
| 20260901183917 | 73 | 292 | 1.0 | 1.0 | 0.00 | 1.13 | 1.13 | 99 | 1016.9 |
| 20260901183416 | 74 | 355 | 0.0 | 0.0 | 0.00 | 1.13 | 1.13 | 99 | 1016.8 |
| 20260901182912 | 73 | 59 | 1.0 | 1.0 | 0.00 | 1.13 | 1.13 | 99 | 1016.8 |
| 20260901182407 | 73 | 10 | 0.0 | 0.0 | 0.00 | 1.13 | 1.13 | 99 | 1016.8 |
| 20260901181902 | 73 | 4 | 0.0 | 0.0 | 0.00 | 1.13 | 1.13 | 99 | 1016.9 |
| 20260901181357 | 72 | 1 | 0.0 | 1.0 | 0.00 | 1.13 | 1.13 | 99 | 1016.8 |
| 20260901180856 | 72 | 16 | 0.0 | 0.0 | 0.00 | 1.13 | 1.13 | 99 | 1016.7 |
| 20260901180355 | 72 | 348 | 0.0 | 0.0 | 0.00 | 1.13 | 1.13 | 99 | 1016.6 |
| 20260901175853 | 0 | 0.0 | 0.0 | 0.00 | 0.00 | 0.00 | 1016.6 | ||
| 20260901175348 | 0 | 0.0 | 0.0 | 0.00 | 0.00 | 0.00 | 1016.9 | ||
| 20260901174844 | 0 | 0.0 | 0.0 | 0.00 | 0.00 | 0.00 | 1016.5 | ||
| 20260901174339 | 0 | 0.0 | 0.0 | 0.00 | 0.00 | 0.00 | 1016.6 | ||
| 20260901173835 | 0 | 0.0 | 0.0 | 0.00 | 0.00 | 0.00 | 1016.6 | ||
| 20260901173329 | 0 | 0.0 | 0.0 | 0.00 | 0.00 | 0.00 | 1016.9 | ||
| 20260901172826 | 0 | 0.0 | 0.0 | 0.00 | 0.00 | 0.00 | 1016.8 | ||
| 20260901172325 | 0 | 0.0 | 0.0 | 0.00 | 0.00 | 0.00 | 1016.5 | ||
| 20260901171823 | 0 | 0.0 | 0.0 | 0.00 | 0.00 | 0.00 | 1016.6 | ||
| 20260901171323 | 0 | 0.0 | 0.0 | 0.00 | 0.00 | 0.00 | 1016.6 | ||
| 20260901170822 | 0 | 0.0 | 0.0 | 0.00 | 0.00 | 0.00 | 1016.5 | ||
| 20260901170317 | 0 | 0.0 | 0.0 | 0.00 | 0.00 | 0.00 | 1016.4 | ||
| 20260901165816 | 71 | 34 | 0.0 | 1.0 | 0.00 | 1.13 | 1.13 | 99 | 1016.8 |
| 20260901165310 | 71 | 34 | 0.0 | 1.0 | 0.00 | 1.13 | 1.13 | 99 | 1016.8 |
| 20260901164807 | 71 | 34 | 0.0 | 1.0 | 0.00 | 1.13 | 1.13 | 99 | 1016.9 |
| 20260901164302 | 0 | 0.0 | 0.0 | 0.00 | 0.00 | 0.00 | 1017.0 | ||
| 20260901163757 | 0 | 0.0 | 0.0 | 0.00 | 0.00 | 0.00 | 1016.9 | ||
| 20260901163257 | 0 | 0.0 | 0.0 | 0.00 | 0.00 | 0.00 | 1016.9 | ||
| 20260901162752 | 0 | 0.0 | 0.0 | 0.00 | 0.00 | 0.00 | 1017.1 | ||
| 20260901162251 | 0 | 0.0 | 0.0 | 0.00 | 0.00 | 0.00 | 1017.4 | ||
| 20260901161750 | 0 | 0.0 | 0.0 | 0.00 | 0.00 | 0.00 | 1017.0 | ||
| 20260901161245 | 69 | 12 | 0.0 | 0.0 | 0.00 | 1.13 | 1.13 | 99 | 1017.3 |
| 20260901160741 | 69 | 12 | 0.0 | 0.0 | 0.00 | 1.13 | 1.13 | 99 | 1017.3 |
| 20260901160237 | 69 | 17 | 0.0 | 0.0 | 0.00 | 1.13 | 1.13 | 99 | 1017.5 |
| 20260901155736 | 0 | 0.0 | 0.0 | 0.00 | 0.00 | 0.00 | 1017.5 | ||
| 20260901155230 | 0 | 0.0 | 0.0 | 0.00 | 0.00 | 0.00 | 1017.6 | ||
| 20260901154726 | 0 | 0.0 | 0.0 | 0.00 | 0.00 | 0.00 | 1017.7 | ||
| 20260901154221 | 0 | 0.0 | 0.0 | 0.00 | 0.00 | 0.00 | 1017.8 | ||
| 20260901153716 | 0 | 0.0 | 0.0 | 0.00 | 0.00 | 0.00 | 1017.6 | ||
| 20260901153215 | 67 | 19 | 0.0 | 0.0 | 0.00 | 1.13 | 1.13 | 99 | 1017.5 |
| 20260901152710 | 67 | 19 | 0.0 | 0.0 | 0.00 | 1.13 | 1.13 | 99 | 1017.7 |
| 20260901152208 | 67 | 19 | 0.0 | 0.0 | 0.00 | 1.13 | 1.13 | 99 | 1017.4 |
| 20260901151704 | 67 | 39 | 1.0 | 1.0 | 0.00 | 1.13 | 1.13 | 99 | 1017.6 |
| 20260901151203 | 67 | 31 | 0.0 | 1.0 | 0.19 | 1.13 | 1.13 | 99 | 1017.8 |
| 20260901150703 | 67 | 3 | 0.0 | 0.0 | 0.59 | 1.13 | 1.13 | 99 | 1018.0 |
| 20260901150201 | 67 | 44 | 1.0 | 2.0 | 1.44 | 1.10 | 1.10 | 99 | 1017.7 |
| 20260901145659 | 67 | 17 | 0.0 | 0.0 | 3.12 | 1.05 | 1.05 | 99 | 1017.9 |
| 20260901145154 | 68 | 146 | 2.0 | 2.0 | 1.84 | 0.84 | 0.84 | 99 | 1018.3 |
| 20260901144649 | 0 | 0.0 | 0.0 | 0.00 | 0.00 | 0.00 | 1018.2 | ||
| 20260901144144 | 0 | 0.0 | 0.0 | 0.00 | 0.00 | 0.00 | 1018.0 | ||
| 20260901143639 | 0 | 0.0 | 0.0 | 0.00 | 0.00 | 0.00 | 1017.7 | ||
| 20260901143136 | 0 | 0.0 | 0.0 | 0.00 | 0.00 | 0.00 | 1017.0 | ||
| 20260901142632 | 0 | 0.0 | 0.0 | 0.00 | 0.00 | 0.00 | 1017.1 | ||
| 20260901142131 | 0 | 0.0 | 0.0 | 0.00 | 0.00 | 0.00 | 1017.3 | ||
| 20260901141626 | 0 | 0.0 | 0.0 | 0.00 | 0.00 | 0.00 | 1017.6 | ||
| 20260901141120 | 67 | 33 | 0.0 | 1.0 | 0.00 | 0.53 | 0.53 | 99 | 1017.8 |
| 20260901140620 | 67 | 33 | 0.0 | 1.0 | 1.82 | 0.53 | 0.53 | 99 | 1017.6 |
| 20260901140119 | 67 | 33 | 0.0 | 1.0 | 1.82 | 0.53 | 0.53 | 99 | 1017.5 |
| 20260901135619 | 0 | 0.0 | 0.0 | 0.00 | 0.00 | 0.00 | 1018.0 | ||
| 20260901135114 | 67 | 69 | 1.0 | 1.0 | 1.30 | 0.23 | 0.23 | 99 | 1018.2 |
| 20260901134610 | 67 | 69 | 1.0 | 1.0 | 1.30 | 0.23 | 0.23 | 99 | 1018.3 |
| 20260901134104 | 0 | 0.0 | 0.0 | 0.00 | 0.00 | 0.00 | 1018.4 | ||
| 20260901133603 | 0 | 0.0 | 0.0 | 0.00 | 0.00 | 0.00 | 1017.9 | ||
| 20260901133102 | 0 | 0.0 | 0.0 | 0.00 | 0.00 | 0.00 | 1018.0 | ||
| 20260901132556 | 0 | 0.0 | 0.0 | 0.00 | 0.00 | 0.00 | 1017.8 | ||
| 20260901132050 | 0 | 0.0 | 0.0 | 0.00 | 0.00 | 0.00 | 1018.0 | ||
| 20260901131544 | 0 | 0.0 | 0.0 | 0.00 | 0.00 | 0.00 | 1018.1 | ||
| 20260901131035 | 68 | 72 | 1.0 | 2.0 | 0.00 | 0.01 | 0.01 | 99 | 1017.7 |
| 20260901130534 | 68 | 72 | 1.0 | 2.0 | 0.00 | 0.01 | 0.01 | 99 | 1017.7 |
| 20260901130032 | 0 | 0.0 | 0.0 | 0.00 | 0.00 | 0.00 | 1018.4 | ||
| 20260901125526 | 0 | 0.0 | 0.0 | 0.00 | 0.00 | 0.00 | 1018.3 | ||
| 20260901125021 | 0 | 0.0 | 0.0 | 0.00 | 0.00 | 0.00 | 1018.1 | ||
| 20260901124516 | 0 | 0.0 | 0.0 | 0.00 | 0.00 | 0.00 | 1017.5 | ||
| 20260901124016 | 0 | 0.0 | 0.0 | 0.00 | 0.00 | 0.00 | 1017.5 | ||
| 20260901123510 | 0 | 0.0 | 0.0 | 0.00 | 0.00 | 0.00 | 1017.7 | ||
| 20260901123009 | 0 | 0.0 | 0.0 | 0.00 | 0.00 | 0.00 | 1017.9 | ||
| 20260901122503 | 0 | 0.0 | 0.0 | 0.00 | 0.00 | 0.00 | 1017.6 | ||
| 20260901122002 | 0 | 0.0 | 0.0 | 0.00 | 0.00 | 0.00 | 1017.6 | ||
| 20260901121457 | 0 | 0.0 | 0.0 | 0.00 | 0.00 | 0.00 | 1017.7 | ||
| 20260901120952 | 0 | 0.0 | 0.0 | 0.00 | 0.00 | 0.00 | 1017.8 | ||
| 20260901120447 | 0 | 0.0 | 0.0 | 0.00 | 0.00 | 0.00 | 1017.8 | ||
| 20260901115943 | 0 | 0.0 | 0.0 | 0.00 | 0.00 | 0.00 | 1017.5 | ||
| 20260901115443 | 0 | 0.0 | 0.0 | 0.00 | 0.00 | 0.00 | 1017.5 | ||
| 20260901114940 | 0 | 0.0 | 0.0 | 0.00 | 0.00 | 0.00 | 1017.9 | ||
| 20260901114435 | 0 | 0.0 | 0.0 | 0.00 | 0.00 | 0.00 | 1017.5 | ||
| 20260901113933 | 0 | 0.0 | 0.0 | 0.00 | 0.00 | 0.00 | 1017.6 | ||
| 20260901113432 | 0 | 0.0 | 0.0 | 0.00 | 0.00 | 0.00 | 1017.5 | ||
| 20260901112928 | 0 | 0.0 | 0.0 | 0.00 | 0.00 | 0.00 | 1017.6 | ||
| 20260901112423 | 0 | 0.0 | 0.0 | 0.00 | 0.00 | 0.00 | 1017.6 | ||
| 20260901111918 | 0 | 0.0 | 0.0 | 0.00 | 0.00 | 0.00 | 1017.6 | ||
| 20260901111415 | 0 | 0.0 | 0.0 | 0.00 | 0.00 | 0.00 | 1017.5 | ||
| 20260901110914 | 0 | 0.0 | 0.0 | 0.00 | 0.00 | 0.00 | 1017.7 | ||
| 20260901110410 | 66 | 13 | 0.0 | 0.0 | 0.00 | 0.01 | 0.01 | 99 | 1017.5 |
| 20260901105906 | 66 | 13 | 0.0 | 0.0 | 0.00 | 0.01 | 0.01 | 99 | 1017.6 |
| 20260901105401 | 66 | 12 | 0.0 | 0.0 | 0.00 | 0.01 | 0.01 | 99 | 1017.6 |
| 20260901104858 | 66 | 10 | 0.0 | 0.0 | 0.00 | 0.01 | 0.01 | 99 | 1017.5 |
| 20260901104352 | 66 | 29 | 0.0 | 0.0 | 0.00 | 0.01 | 0.01 | 99 | 1017.6 |
| 20260901103848 | 66 | 29 | 0.0 | 0.0 | 0.00 | 0.01 | 0.01 | 99 | 1017.5 |
| 20260901103343 | 0 | 0.0 | 0.0 | 0.00 | 0.00 | 0.00 | 1017.7 | ||
| 20260901102837 | 0 | 0.0 | 0.0 | 0.00 | 0.00 | 0.00 | 1017.8 | ||
| 20260901102331 | 0 | 0.0 | 0.0 | 0.00 | 0.00 | 0.00 | 1017.6 | ||
| 20260901101827 | 66 | 20 | 0.0 | 0.0 | 0.00 | 0.01 | 0.01 | 99 | 1017.4 |
| 20260901101326 | 66 | 20 | 0.0 | 0.0 | 0.00 | 0.01 | 0.01 | 99 | 1017.4 |
| 20260901100820 | 66 | 20 | 0.0 | 0.0 | 0.00 | 0.01 | 0.01 | 99 | 1017.7 |
| 20260901100315 | 66 | 29 | 0.0 | 0.0 | 0.00 | 0.01 | 0.01 | 99 | 1017.3 |
| 20260901095814 | 66 | 16 | 0.0 | 0.0 | 0.00 | 0.01 | 0.01 | 99 | 1017.6 |
| 20260901095312 | 66 | 13 | 0.0 | 0.0 | 0.00 | 0.01 | 0.01 | 99 | 1017.7 |
| 20260901094806 | 66 | 3 | 0.0 | 0.0 | 0.00 | 0.01 | 0.01 | 99 | 1017.5 |
| 20260901094301 | 66 | 29 | 0.0 | 0.0 | 0.00 | 0.01 | 0.01 | 99 | 1017.6 |
| 20260901093756 | 66 | 13 | 0.0 | 0.0 | 0.00 | 0.01 | 0.01 | 99 | 1017.9 |
| 20260901093255 | 66 | 22 | 0.0 | 0.0 | 0.00 | 0.01 | 0.01 | 99 | 1017.7 |
| 20260901092751 | 67 | 16 | 0.0 | 0.0 | 0.00 | 0.01 | 0.01 | 99 | 1018.0 |
| 20260901092247 | 66 | 25 | 0.0 | 0.0 | 0.00 | 0.01 | 0.01 | 99 | 1018.0 |
| 20260901091742 | 67 | 18 | 0.0 | 0.0 | 0.00 | 0.01 | 0.01 | 99 | 1018.0 |
| 20260901091237 | 67 | 11 | 0.0 | 0.0 | 0.07 | 0.01 | 0.01 | 99 | 1017.9 |
| 20260901090732 | 67 | 17 | 0.0 | 0.0 | 0.07 | 0.01 | 0.01 | 99 | 1017.9 |
| 20260901090228 | 67 | 17 | 0.0 | 0.0 | 0.00 | 0.00 | 0.00 | 99 | 1018.0 |
| 20260901085724 | 67 | 17 | 0.0 | 0.0 | 0.00 | 0.00 | 0.00 | 99 | 1017.9 |
| 20260901085218 | 67 | 13 | 0.0 | 0.0 | 0.00 | 0.00 | 0.00 | 99 | 1017.8 |
| 20260901084715 | 67 | 11 | 0.0 | 0.0 | 0.00 | 0.00 | 0.00 | 99 | 1017.8 |
| 20260901084211 | 67 | 3 | 0.0 | 0.0 | 0.00 | 0.00 | 0.00 | 99 | 1017.8 |
| 20260901083711 | 66 | 6 | 0.0 | 0.0 | 0.00 | 0.00 | 0.00 | 99 | 1018.1 |
| 20260901083210 | 66 | 12 | 0.0 | 0.0 | 0.00 | 0.00 | 0.00 | 99 | 1018.1 |
| 20260901082709 | 66 | 13 | 0.0 | 0.0 | 0.00 | 0.00 | 0.00 | 99 | 1017.8 |
| 20260901082205 | 66 | 11 | 0.0 | 0.0 | 0.00 | 0.00 | 0.00 | 99 | 1018.1 |
| 20260901081700 | 66 | 18 | 0.0 | 0.0 | 0.00 | 0.00 | 0.00 | 99 | 1018.2 |
| 20260901081159 | 66 | 6 | 0.0 | 0.0 | 0.00 | 0.00 | 0.00 | 99 | 1018.1 |
| 20260901080654 | 66 | 14 | 0.0 | 0.0 | 0.00 | 0.00 | 0.00 | 99 | 1018.1 |
| 20260901080153 | 66 | 14 | 0.0 | 0.0 | 0.00 | 0.00 | 0.00 | 99 | 1018.4 |
| 20260901075648 | 66 | 18 | 0.0 | 0.0 | 0.00 | 0.00 | 0.00 | 99 | 1018.1 |
| 20260901075143 | 66 | 16 | 0.0 | 0.0 | 0.00 | 0.00 | 0.00 | 99 | 1018.3 |
| 20260901074643 | 66 | 21 | 0.0 | 0.0 | 0.00 | 0.00 | 0.00 | 99 | 1018.2 |
| 20260901074138 | 66 | 17 | 0.0 | 0.0 | 0.00 | 0.00 | 0.00 | 99 | 1018.3 |
| 20260901073634 | 66 | 15 | 0.0 | 0.0 | 0.00 | 0.00 | 0.00 | 99 | 1018.1 |
| 20260901073130 | 66 | 10 | 0.0 | 0.0 | 0.00 | 0.00 | 0.00 | 99 | 1018.2 |
| 20260901072625 | 66 | 8 | 0.0 | 0.0 | 0.00 | 0.00 | 0.00 | 99 | 1018.1 |
| 20260901072119 | 66 | 18 | 0.0 | 0.0 | 0.00 | 0.00 | 0.00 | 99 | 1018.5 |
| 20260901071613 | 66 | 20 | 0.0 | 0.0 | 0.00 | 0.00 | 0.00 | 99 | 1018.1 |
| 20260901071112 | 66 | 18 | 0.0 | 0.0 | 0.00 | 0.00 | 0.00 | 99 | 1018.5 |
| 20260901070607 | 66 | 17 | 0.0 | 0.0 | 0.00 | 0.00 | 0.00 | 99 | 1018.3 |
| 20260901065556 | 66 | 18 | 0.0 | 0.0 | 0.00 | 0.00 | 0.00 | 99 | 1018.3 |
| 20260901065050 | 66 | 17 | 0.0 | 0.0 | 0.00 | 0.00 | 0.00 | 99 | 1018.3 |
| 20260901064548 | 66 | 19 | 0.0 | 0.0 | 0.00 | 0.00 | 0.00 | 99 | 1018.4 |
| 20260901064044 | 66 | 20 | 0.0 | 0.0 | 0.00 | 0.00 | 0.00 | 99 | 1018.5 |
| 20260901063541 | 66 | 24 | 0.0 | 0.0 | 0.00 | 0.00 | 0.00 | 99 | 1018.7 |
| 20260901063036 | 67 | 19 | 0.0 | 0.0 | 0.00 | 0.00 | 0.00 | 99 | 1018.7 |
| 20260901062532 | 66 | 12 | 0.0 | 0.0 | 0.00 | 0.00 | 0.00 | 99 | 1018.6 |
| 20260901062028 | 66 | 13 | 0.0 | 0.0 | 0.00 | 0.00 | 0.00 | 99 | 1018.9 |
| 20260901061525 | 66 | 16 | 0.0 | 0.0 | 0.00 | 0.00 | 0.00 | 99 | 1018.8 |
| 20260901061024 | 66 | 13 | 0.0 | 0.0 | 0.00 | 0.00 | 0.00 | 99 | 1018.7 |
| 20260901060519 | 66 | 14 | 0.0 | 0.0 | 0.00 | 0.00 | 0.00 | 99 | 1018.9 |
| 20260901060014 | 66 | 6 | 0.0 | 0.0 | 0.00 | 0.00 | 0.00 | 99 | 1018.7 |
| 20260901055510 | 66 | 17 | 0.0 | 0.0 | 0.00 | 0.00 | 0.00 | 99 | 1019.0 |
| 20260901055007 | 66 | 25 | 0.0 | 0.0 | 0.00 | 0.00 | 0.00 | 99 | 1018.9 |
| 20260901054503 | 66 | 17 | 0.0 | 0.0 | 0.00 | 0.00 | 0.00 | 99 | 1019.0 |
| 20260901053959 | 66 | 13 | 0.0 | 0.0 | 0.00 | 0.00 | 0.00 | 99 | 1018.9 |
| 20260901053453 | 67 | 13 | 0.0 | 0.0 | 0.00 | 0.00 | 0.00 | 99 | 1018.8 |
| 20260901052949 | 67 | 17 | 0.0 | 0.0 | 0.00 | 0.00 | 0.00 | 99 | 1018.8 |
| 20260901052444 | 67 | 23 | 0.0 | 0.0 | 0.00 | 0.00 | 0.00 | 99 | 1018.7 |
| 20260901051938 | 67 | 25 | 0.0 | 0.0 | 0.00 | 0.00 | 0.00 | 99 | 1019.0 |
| 20260901051434 | 67 | 15 | 0.0 | 0.0 | 0.00 | 0.00 | 0.00 | 99 | 1019.0 |
| 20260901050933 | 67 | 18 | 0.0 | 0.0 | 0.00 | 0.00 | 0.00 | 99 | 1019.0 |
| 20260901050429 | 67 | 30 | 0.0 | 0.0 | 0.00 | 0.00 | 0.00 | 99 | 1019.3 |
| 20260901045928 | 67 | 17 | 0.0 | 0.0 | 0.00 | 0.00 | 0.00 | 99 | 1019.2 |
| 20260901045424 | 67 | 350 | 0.0 | 0.0 | 0.00 | 0.00 | 0.00 | 99 | 1019.3 |
| 20260901044919 | 67 | 6 | 0.0 | 0.0 | 0.00 | 0.00 | 0.00 | 99 | 1019.3 |
| 20260901044415 | 67 | 8 | 0.0 | 0.0 | 0.00 | 0.00 | 0.00 | 99 | 1019.3 |
| 20260901043911 | 67 | 347 | 1.0 | 1.0 | 0.00 | 0.00 | 0.00 | 99 | 1019.1 |
| 20260901043407 | 67 | 48 | 1.0 | 1.0 | 0.00 | 0.00 | 0.00 | 99 | 1019.0 |
| 20260901042906 | 66 | 14 | 0.0 | 0.0 | 0.00 | 0.00 | 0.00 | 99 | 1019.2 |
| 20260901042401 | 67 | 18 | 0.0 | 0.0 | 0.00 | 0.00 | 0.00 | 99 | 1019.1 |
| 20260901041856 | 66 | 20 | 0.0 | 0.0 | 0.00 | 0.00 | 0.00 | 99 | 1019.1 |
| 20260901041352 | 67 | 12 | 0.0 | 0.0 | 0.00 | 0.00 | 0.00 | 99 | 1019.0 |
| 20260901040851 | 67 | 10 | 0.0 | 0.0 | 0.00 | 0.00 | 0.00 | 99 | 1018.9 |
| 20260901040351 | 66 | 355 | 0.0 | 0.0 | 0.00 | 0.00 | 0.00 | 99 | 1019.2 |
| 20260901035850 | 66 | 15 | 0.0 | 0.0 | 0.00 | 0.26 | 0.26 | 99 | 1019.0 |
| 20260901035349 | 66 | 11 | 0.0 | 0.0 | 0.00 | 0.26 | 0.26 | 99 | 1019.1 |
| 20260901034847 | 66 | 20 | 0.0 | 0.0 | 0.00 | 0.26 | 0.26 | 99 | 1019.1 |
| 20260901034342 | 66 | 22 | 0.0 | 0.0 | 0.00 | 0.26 | 0.26 | 99 | 1019.5 |
| 20260901033843 | 66 | 19 | 0.0 | 0.0 | 0.00 | 0.26 | 0.26 | 99 | 1019.2 |
| 20260901033341 | 66 | 18 | 0.0 | 0.0 | 0.00 | 0.26 | 0.26 | 99 | 1019.1 |
| 20260901032840 | 66 | 13 | 0.0 | 0.0 | 0.00 | 0.26 | 0.26 | 99 | 1019.2 |
| 20260901032335 | 65 | 19 | 0.0 | 0.0 | 0.00 | 0.26 | 0.26 | 99 | 1019.1 |
| 20260901031830 | 66 | 5 | 0.0 | 0.0 | 0.00 | 0.26 | 0.26 | 99 | 1019.1 |
| 20260901031326 | 65 | 356 | 1.0 | 1.0 | 0.00 | 0.26 | 0.26 | 99 | 1019.1 |
| 20260901030825 | 65 | 27 | 0.0 | 0.0 | 0.00 | 0.26 | 0.26 | 99 | 1019.1 |
| 20260901030321 | 65 | 20 | 0.0 | 0.0 | 0.00 | 0.26 | 0.26 | 99 | 1019.1 |
| 20260901025820 | 65 | 17 | 0.0 | 0.0 | 0.00 | 0.26 | 0.26 | 99 | 1019.3 |
| 20260901025315 | 65 | 16 | 0.0 | 0.0 | 0.00 | 0.26 | 0.26 | 99 | 1019.2 |
| 20260901024810 | 65 | 13 | 0.0 | 0.0 | 0.00 | 0.26 | 0.26 | 99 | 1019.1 |
| 20260901024309 | 65 | 6 | 0.0 | 0.0 | 0.00 | 0.26 | 0.26 | 99 | 1019.3 |
| 20260901023807 | 65 | 17 | 0.0 | 0.0 | 0.00 | 0.26 | 0.26 | 99 | 1019.2 |
| 20260901023302 | 65 | 14 | 0.0 | 0.0 | 0.00 | 0.26 | 0.26 | 99 | 1019.3 |
| 20260901022758 | 65 | 12 | 0.0 | 0.0 | 0.00 | 0.26 | 0.26 | 99 | 1019.3 |
| 20260901022254 | 65 | 32 | 0.0 | 1.0 | 0.00 | 0.26 | 0.26 | 99 | 1019.6 |
| 20260901021748 | 65 | 14 | 1.0 | 1.0 | 0.00 | 0.26 | 0.26 | 99 | 1019.7 |
| 20260901021244 | 65 | 7 | 0.0 | 0.0 | 0.00 | 0.26 | 0.26 | 99 | 1019.6 |
| 20260901020739 | 65 | 58 | 1.0 | 1.0 | 0.12 | 0.26 | 0.26 | 99 | 1019.6 |
| 20260901020234 | 65 | 57 | 1.0 | 1.0 | 0.19 | 0.26 | 0.26 | 99 | 1019.6 |
| 20260901015728 | 65 | 11 | 0.0 | 1.0 | 0.12 | 0.24 | 0.24 | 99 | 1019.7 |
| 20260901015224 | 65 | 13 | 0.0 | 0.0 | 0.07 | 0.22 | 0.22 | 99 | 1019.7 |
| 20260901014719 | 65 | 15 | 0.0 | 0.0 | 0.00 | 0.21 | 0.21 | 99 | 1019.7 |
| 20260901014215 | 65 | 6 | 0.0 | 0.0 | 0.00 | 0.21 | 0.21 | 99 | 1019.6 |
| 20260901013710 | 65 | 13 | 0.0 | 0.0 | 0.00 | 0.21 | 0.21 | 99 | 1019.8 |
| 20260901013206 | 65 | 20 | 0.0 | 0.0 | 0.00 | 0.21 | 0.21 | 99 | 1019.7 |
| 20260901012701 | 65 | 19 | 0.0 | 0.0 | 0.00 | 0.21 | 0.21 | 99 | 1019.8 |
| 20260901012156 | 65 | 14 | 0.0 | 0.0 | 0.00 | 0.21 | 0.21 | 99 | 1020.0 |
| 20260901011651 | 65 | 19 | 0.0 | 0.0 | 0.00 | 0.21 | 0.21 | 99 | 1019.8 |
| 20260901011150 | 65 | 14 | 0.0 | 0.0 | 0.00 | 0.21 | 0.21 | 99 | 1020.0 |
| 20260901010645 | 65 | 10 | 0.0 | 0.0 | 0.00 | 0.21 | 0.21 | 99 | 1019.6 |
| 20260901010145 | 65 | 13 | 0.0 | 0.0 | 0.00 | 0.21 | 0.21 | 99 | 1019.5 |
| 20260901005644 | 65 | 14 | 0.0 | 0.0 | 0.00 | 0.21 | 0.21 | 99 | 1019.6 |
| 20260901005140 | 65 | 14 | 0.0 | 0.0 | 0.00 | 0.21 | 0.21 | 99 | 1019.5 |
| 20260901004639 | 65 | 20 | 0.0 | 0.0 | 0.00 | 0.21 | 0.21 | 99 | 1019.7 |
| 20260901004134 | 65 | 11 | 0.0 | 0.0 | 0.00 | 0.21 | 0.21 | 99 | 1019.3 |
| 20260901003629 | 65 | 9 | 0.0 | 0.0 | 0.00 | 0.21 | 0.21 | 99 | 1019.6 |
| 20260901003127 | 65 | 9 | 0.0 | 0.0 | 0.00 | 0.21 | 0.21 | 99 | 1019.6 |
| 20260901002622 | 65 | 15 | 0.0 | 0.0 | 0.00 | 0.21 | 0.21 | 99 | 1019.6 |
| 20260901002116 | 65 | 19 | 0.0 | 0.0 | 0.00 | 0.21 | 0.21 | 99 | 1019.7 |
| 20260901001606 | 65 | 20 | 0.0 | 0.0 | 0.00 | 0.21 | 0.21 | 99 | 1019.7 |
| 20260901001101 | 65 | 13 | 0.0 | 0.0 | 0.00 | 0.21 | 0.21 | 99 | 1019.6 |
| 20260901000555 | 65 | 13 | 0.0 | 0.0 | 0.00 | 0.21 | 0.21 | 99 | 1019.8 |
| 20260901000051 | 65 | 21 | 0.0 | 0.0 | 0.00 | 0.21 | 0.21 | 99 | 1019.7 |
| 20260831235544 | 65 | 22 | 0.0 | 0.0 | 0.00 | 0.21 | 0.21 | 99 | 1019.8 |
| 20260831235040 | 65 | 14 | 0.0 | 0.0 | 0.00 | 0.21 | 0.21 | 99 | 1019.9 |
| 20260831234534 | 65 | 30 | 0.0 | 0.0 | 0.00 | 0.21 | 0.21 | 99 | 1019.9 |
| 20260831234031 | 66 | 15 | 0.0 | 0.0 | 0.00 | 0.21 | 0.21 | 99 | 1019.8 |
| 20260831233525 | 66 | 23 | 0.0 | 0.0 | 0.00 | 0.21 | 0.21 | 99 | 1019.8 |
| 20260831233021 | 66 | 20 | 0.0 | 0.0 | 0.00 | 0.21 | 0.21 | 99 | 1019.8 |
| 20260831232516 | 66 | 22 | 0.0 | 0.0 | 0.00 | 0.21 | 0.21 | 99 | 1019.8 |